| time (UTC) | temp C | wind direction | speed KPH | gust KPH | rain 1hr cm | rain 24hr cm | rain mn cm | humidity % | barometer mb |
| 20260504231914 | -17 | 208 | 1.6 | 1.6 | 0.00 | 0.00 | 0.00 | 1008.6 | |
| 20260504231410 | -17 | 185 | 1.6 | 4.8 | 0.00 | 0.00 | 0.00 | 1008.5 | |
| 20260504230907 | -17 | 196 | 4.8 | 8.0 | 0.00 | 0.00 | 0.00 | 1008.6 | |
| 20260504230404 | -17 | 205 | 3.2 | 3.2 | 0.00 | 0.00 | 0.00 | 1008.4 | |
| 20260504225903 | -17 | 156 | 1.6 | 1.6 | 0.00 | 0.00 | 0.00 | 1008.4 | |
| 20260504225359 | -17 | 224 | 0.0 | 0.0 | 0.00 | 0.00 | 0.00 | 1008.6 | |
| 20260504224856 | -17 | 219 | 1.6 | 1.6 | 0.00 | 0.00 | 0.00 | 1008.4 | |
| 20260504224353 | -17 | 204 | 1.6 | 3.2 | 0.00 | 0.00 | 0.00 | 1008.6 | |
| 20260504223850 | -17 | 211 | 1.6 | 3.2 | 0.00 | 0.00 | 0.00 | 1008.3 | |
| 20260504223345 | -17 | 221 | 1.6 | 3.2 | 0.00 | 0.00 | 0.00 | 1008.4 | |
| 20260504222842 | -17 | 190 | 3.2 | 3.2 | 0.00 | 0.00 | 0.00 | 1008.3 | |
| 20260504222338 | -17 | 235 | 3.2 | 4.8 | 0.00 | 0.00 | 0.00 | 1008.3 | |
| 20260504221837 | -17 | 176 | 1.6 | 3.2 | 0.00 | 0.00 | 0.00 | 1008.3 | |
| 20260504221333 | -17 | 219 | 0.0 | 0.0 | 0.00 | 0.00 | 0.00 | 1008.3 | |
| 20260504220831 | -17 | 226 | 3.2 | 3.2 | 0.00 | 0.00 | 0.00 | 1008.4 | |
| 20260504220327 | -17 | 213 | 3.2 | 4.8 | 0.00 | 0.00 | 0.00 | 1008.4 | |
| 20260504215825 | -17 | 167 | 4.8 | 8.0 | 0.00 | 0.00 | 0.00 | 1008.5 | |
| 20260504215321 | -17 | 210 | 3.2 | 4.8 | 0.00 | 0.00 | 0.00 | 1008.1 | |
| 20260504214817 | -17 | 201 | 1.6 | 3.2 | 0.00 | 0.00 | 0.00 | 1008.2 | |
| 20260504214314 | -17 | 240 | 0.0 | 1.6 | 0.00 | 0.00 | 0.00 | 1008.6 | |
| 20260504213810 | -17 | 200 | 4.8 | 4.8 | 0.00 | 0.00 | 0.00 | 1008.3 | |
| 20260504213307 | -17 | 226 | 0.0 | 1.6 | 0.00 | 0.00 | 0.00 | 1008.4 | |
| 20260504212804 | -17 | 269 | 3.2 | 8.0 | 0.00 | 0.00 | 0.00 | 1008.5 | |
| 20260504212300 | -17 | 228 | 1.6 | 1.6 | 0.00 | 0.00 | 0.00 | 1008.3 | |
| 20260504211758 | -17 | 234 | 1.6 | 3.2 | 0.00 | 0.00 | 0.00 | 1008.4 | |
| 20260504211254 | -17 | 210 | 1.6 | 3.2 | 0.00 | 0.00 | 0.00 | 1008.4 | |
| 20260504210752 | -17 | 182 | 1.6 | 3.2 | 0.00 | 0.00 | 0.00 | 1008.5 | |
| 20260504210249 | -17 | 195 | 0.0 | 1.6 | 0.00 | 0.00 | 0.00 | 1008.3 | |
| 20260504205745 | -17 | 85 | 1.6 | 3.2 | 0.00 | 0.00 | 0.00 | 1008.6 | |
| 20260504205243 | -17 | 223 | 0.0 | 0.0 | 0.00 | 0.00 | 0.00 | 1008.5 | |
| 20260504204741 | -17 | 312 | 0.0 | 1.6 | 0.00 | 0.00 | 0.00 | 1008.8 | |
| 20260504204239 | -17 | 268 | 1.6 | 1.6 | 0.00 | 0.00 | 0.00 | 1008.5 | |
| 20260504203738 | -17 | 186 | 3.2 | 8.0 | 0.00 | 0.00 | 0.00 | 1008.5 | |
| 20260504203235 | -17 | 196 | 6.4 | 9.7 | 0.00 | 0.00 | 0.00 | 1009.0 | |
| 20260504202735 | -17 | 214 | 3.2 | 3.2 | 0.00 | 0.00 | 0.00 | 1009.0 | |
| 20260504202233 | -17 | 227 | 0.0 | 0.0 | 0.00 | 0.00 | 0.00 | 1009.1 | |
| 20260504201730 | -17 | 254 | 4.8 | 4.8 | 0.00 | 0.00 | 0.00 | 1009.2 | |
| 20260504201227 | -17 | 260 | 1.6 | 1.6 | 0.00 | 0.00 | 0.00 | 1009.0 | |
| 20260504200725 | -17 | 207 | 3.2 | 3.2 | 0.00 | 0.00 | 0.00 | 1009.3 | |
| 20260504200220 | -17 | 219 | 1.6 | 1.6 | 0.00 | 0.00 | 0.00 | 1009.2 | |
| 20260504195717 | -17 | 189 | 6.4 | 8.0 | 0.00 | 0.00 | 0.00 | 1009.2 | |
| 20260504195213 | -17 | 182 | 1.6 | 3.2 | 0.00 | 0.00 | 0.00 | 1009.3 | |
| 20260504194710 | -17 | 200 | 4.8 | 8.0 | 0.00 | 0.00 | 0.00 | 1009.4 | |
| 20260504194206 | -17 | 194 | 4.8 | 8.0 | 0.00 | 0.00 | 0.00 | 1009.5 | |
| 20260504193702 | -17 | 209 | 1.6 | 3.2 | 0.00 | 0.00 | 0.00 | 1009.6 | |
| 20260504193200 | -17 | 47 | 0.0 | 1.6 | 0.00 | 0.00 | 0.00 | 1009.6 | |
| 20260504192658 | -17 | 243 | 3.2 | 3.2 | 0.00 | 0.00 | 0.00 | 1009.7 | |
| 20260504192156 | -17 | 138 | 3.2 | 4.8 | 0.00 | 0.00 | 0.00 | 1009.7 | |
| 20260504191654 | -17 | 281 | 1.6 | 3.2 | 0.00 | 0.00 | 0.00 | 1009.8 | |
| 20260504191150 | -17 | 220 | 4.8 | 4.8 | 0.00 | 0.00 | 0.00 | 1009.9 | |
| 20260504190646 | -17 | 38 | 4.8 | 8.0 | 0.00 | 0.00 | 0.00 | 1010.0 | |
| 20260504190143 | -17 | 213 | 3.2 | 3.2 | 0.00 | 0.00 | 0.00 | 1010.1 | |
| 20260504185639 | -17 | 216 | 1.6 | 3.2 | 0.00 | 0.00 | 0.00 | 1010.0 | |
| 20260504185136 | -17 | 252 | 1.6 | 3.2 | 0.00 | 0.00 | 0.00 | 1010.1 | |
| 20260504184632 | -17 | 248 | 1.6 | 3.2 | 0.00 | 0.00 | 0.00 | 1010.2 | |
| 20260504184127 | -17 | 252 | 3.2 | 4.8 | 0.00 | 0.00 | 0.00 | 1010.6 | |
| 20260504183625 | -17 | 204 | 6.4 | 8.0 | 0.00 | 0.00 | 0.00 | 1010.3 | |
| 20260504183122 | -17 | 242 | 1.6 | 1.6 | 0.00 | 0.00 | 0.00 | 1010.6 | |
| 20260504182620 | -17 | 216 | 1.6 | 1.6 | 0.00 | 0.00 | 0.00 | 1010.5 | |
| 20260504182117 | -17 | 165 | 8.0 | 9.7 | 0.00 | 0.00 | 0.00 | 1010.6 | |
| 20260504181614 | -17 | 198 | 4.8 | 8.0 | 0.00 | 0.00 | 0.00 | 1010.7 | |
| 20260504181112 | -17 | 181 | 1.6 | 1.6 | 0.00 | 0.00 | 0.00 | 1010.8 | |
| 20260504180611 | -17 | 97 | 4.8 | 4.8 | 0.00 | 0.00 | 0.00 | 1010.8 | |
| 20260504180109 | -17 | 302 | 6.4 | 8.0 | 0.00 | 0.00 | 0.00 | 1010.8 | |
| 20260504175606 | -17 | 284 | 3.2 | 3.2 | 0.00 | 0.00 | 0.00 | 1011.0 | |
| 20260504175103 | -17 | 237 | 1.6 | 3.2 | 0.00 | 0.00 | 0.00 | 1010.9 | |
| 20260504174601 | -17 | 282 | 1.6 | 3.2 | 0.00 | 0.00 | 0.00 | 1011.0 | |
| 20260504174057 | -17 | 236 | 1.6 | 1.6 | 0.00 | 0.00 | 0.00 | 1010.9 | |
| 20260504173554 | -17 | 190 | 0.0 | 0.0 | 0.00 | 0.00 | 0.00 | 1010.9 | |
| 20260504173052 | -17 | 208 | 4.8 | 4.8 | 0.00 | 0.00 | 0.00 | 1010.9 | |
| 20260504172547 | -17 | 178 | 4.8 | 4.8 | 0.00 | 0.00 | 0.00 | 1011.3 | |
| 20260504172044 | -17 | 243 | 1.6 | 1.6 | 0.00 | 0.00 | 0.00 | 1011.1 | |
| 20260504171541 | -17 | 229 | 0.0 | 0.0 | 0.00 | 0.00 | 0.00 | 1011.3 | |
| 20260504171038 | -17 | 232 | 4.8 | 4.8 | 0.00 | 0.00 | 0.00 | 1011.3 | |
| 20260504170534 | -17 | 303 | 9.7 | 14.5 | 0.00 | 0.00 | 0.00 | 1011.5 | |
| 20260504150918 | -17 | 87 | 0.0 | 1.6 | 0.00 | 0.00 | 0.00 | 1012.7 | |
| 20260504150415 | -17 | 188 | 3.2 | 3.2 | 0.00 | 0.00 | 0.00 | 1012.6 | |
| 20260504140841 | -17 | 179 | 4.8 | 4.8 | 0.00 | 0.00 | 0.00 | 1012.9 | |
| 20260504140337 | -17 | 341 | 1.6 | 3.2 | 0.00 | 0.00 | 0.00 | 1013.0 | |
| 20260504130806 | -17 | 141 | 4.8 | 9.7 | 0.00 | 0.00 | 0.00 | 1013.5 | |
| 20260504130302 | -17 | 237 | 3.2 | 4.8 | 0.00 | 0.00 | 0.00 | 1013.2 | |
| 20260504120225 | -17 | 216 | 0.0 | 1.6 | 0.00 | 0.00 | 0.00 | 1013.7 | |
| 20260504110653 | -17 | 226 | 0.0 | 0.0 | 0.00 | 0.00 | 0.00 | 1014.0 | |
| 20260504110149 | -17 | 188 | 0.0 | 0.0 | 0.00 | 0.00 | 0.00 | 1014.1 | |
| 20260504100615 | -17 | 208 | 0.0 | 0.0 | 0.00 | 0.00 | 0.00 | 1014.0 | |
| 20260504100113 | -17 | 212 | 0.0 | 0.0 | 0.00 | 0.00 | 0.00 | 1013.9 | |
| 20260504081506 | -17 | 222 | 0.0 | 0.0 | 0.00 | 0.00 | 0.00 | 1014.1 | |
| 20260504081001 | -17 | 224 | 0.0 | 0.0 | 0.00 | 0.00 | 0.00 | 1014.1 | |
| 20260504080458 | -17 | 227 | 0.0 | 0.0 | 0.00 | 0.00 | 0.00 | 1014.2 | |
| 20260504050311 | -17 | 227 | 0.0 | 0.0 | 0.00 | 0.00 | 0.00 | 1014.2 | |
| 20260504045808 | -17 | 225 | 0.0 | 0.0 | 0.00 | 0.00 | 0.00 | 1014.3 | |
| 20260504045304 | -17 | 226 | 0.0 | 0.0 | 0.00 | 0.00 | 0.00 | 1014.1 | |
| 20260504044800 | -17 | 224 | 0.0 | 0.0 | 0.00 | 0.00 | 0.00 | 1014.4 | |
| 20260504044258 | -17 | 213 | 0.0 | 0.0 | 0.00 | 0.00 | 0.00 | 1014.3 | |
| 20260504043755 | -17 | 217 | 0.0 | 0.0 | 0.00 | 0.00 | 0.00 | 1014.5 | |
| 20260504043251 | -17 | 221 | 0.0 | 0.0 | 0.00 | 0.00 | 0.00 | 1014.2 | |
| 20260504042749 | -17 | 215 | 0.0 | 0.0 | 0.00 | 0.00 | 0.00 | 1014.3 | |
| 20260504042245 | -17 | 230 | 0.0 | 0.0 | 0.00 | 0.00 | 0.00 | 1014.1 | |
| 20260504041742 | -17 | 225 | 0.0 | 0.0 | 0.00 | 0.00 | 0.00 | 1013.9 | |
| 20260504041238 | -17 | 219 | 0.0 | 0.0 | 0.00 | 0.00 | 0.00 | 1014.1 | |
| 20260504040734 | -17 | 226 | 0.0 | 0.0 | 0.00 | 0.00 | 0.00 | 1013.9 | |
| 20260504040232 | -17 | 222 | 0.0 | 0.0 | 0.00 | 0.00 | 0.00 | 1013.9 | |
| 20260504035727 | -17 | 220 | 0.0 | 0.0 | 0.00 | 0.00 | 0.00 | 1014.0 | |
| 20260504035225 | -17 | 219 | 0.0 | 0.0 | 0.00 | 0.00 | 0.00 | 1014.0 | |
| 20260504034722 | -17 | 216 | 0.0 | 0.0 | 0.00 | 0.00 | 0.00 | 1014.0 | |
| 20260504034219 | -17 | 231 | 0.0 | 0.0 | 0.00 | 0.00 | 0.00 | 1013.8 | |
| 20260504033717 | -17 | 226 | 0.0 | 0.0 | 0.00 | 0.00 | 0.00 | 1013.8 | |
| 20260504033214 | -17 | 216 | 0.0 | 0.0 | 0.00 | 0.00 | 0.00 | 1013.8 | |
| 20260504032711 | -17 | 214 | 0.0 | 0.0 | 0.00 | 0.00 | 0.00 | 1013.9 | |
| 20260504032208 | -17 | 208 | 0.0 | 0.0 | 0.00 | 0.00 | 0.00 | 1013.9 | |
| 20260504031705 | -17 | 218 | 0.0 | 0.0 | 0.00 | 0.00 | 0.00 | 1013.7 | |
| 20260504031202 | -17 | 228 | 0.0 | 0.0 | 0.00 | 0.00 | 0.00 | 1013.6 | |
| 20260504030658 | -17 | 225 | 0.0 | 0.0 | 0.00 | 0.00 | 0.00 | 1013.7 | |
| 20260504030155 | -17 | 220 | 0.0 | 0.0 | 0.00 | 0.00 | 0.00 | 1013.5 | |
| 20260504025652 | -17 | 210 | 0.0 | 0.0 | 0.00 | 0.00 | 0.00 | 1013.6 | |
| 20260504025148 | -17 | 216 | 0.0 | 0.0 | 0.00 | 0.00 | 0.00 | 1013.8 | |
| 20260504024646 | -17 | 209 | 0.0 | 0.0 | 0.00 | 0.00 | 0.00 | 1013.6 | |
| 20260504024142 | -17 | 217 | 0.0 | 0.0 | 0.00 | 0.00 | 0.00 | 1013.6 | |
| 20260504023639 | -17 | 224 | 0.0 | 0.0 | 0.00 | 0.00 | 0.00 | 1013.7 | |
| 20260504023135 | -17 | 224 | 0.0 | 0.0 | 0.00 | 0.00 | 0.00 | 1013.6 | |
| 20260504022631 | -17 | 224 | 0.0 | 0.0 | 0.00 | 0.00 | 0.00 | 1013.8 | |
| 20260504022127 | -17 | 227 | 0.0 | 0.0 | 0.00 | 0.00 | 0.00 | 1013.6 | |
| 20260504021626 | -17 | 207 | 0.0 | 0.0 | 0.00 | 0.00 | 0.00 | 1013.6 | |
| 20260504021122 | -17 | 216 | 0.0 | 0.0 | 0.00 | 0.00 | 0.00 | 1013.7 | |
| 20260504020619 | -17 | 228 | 0.0 | 0.0 | 0.00 | 0.00 | 0.00 | 1013.7 | |
| 20260504020115 | -17 | 228 | 0.0 | 0.0 | 0.00 | 0.00 | 0.00 | 1013.6 | |
| 20260504015612 | -17 | 228 | 0.0 | 0.0 | 0.00 | 0.00 | 0.00 | 1013.5 | |
| 20260504015108 | -17 | 214 | 0.0 | 0.0 | 0.00 | 0.00 | 0.00 | 1013.6 | |
| 20260504014604 | -17 | 204 | 1.6 | 1.6 | 0.00 | 0.00 | 0.00 | 1013.5 | |
| 20260504014101 | -17 | 218 | 0.0 | 0.0 | 0.00 | 0.00 | 0.00 | 1013.3 | |
| 20260504013559 | -17 | 223 | 0.0 | 0.0 | 0.00 | 0.00 | 0.00 | 1013.3 | |
| 20260504013055 | -17 | 235 | 0.0 | 0.0 | 0.00 | 0.00 | 0.00 | 1013.4 | |
| 20260504012553 | -17 | 226 | 0.0 | 0.0 | 0.00 | 0.00 | 0.00 | 1013.4 | |
| 20260504012051 | -17 | 223 | 0.0 | 0.0 | 0.00 | 0.00 | 0.00 | 1013.2 | |
| 20260504011547 | -17 | 214 | 0.0 | 0.0 | 0.00 | 0.00 | 0.00 | 1013.3 | |
| 20260504011043 | -17 | 217 | 0.0 | 0.0 | 0.00 | 0.00 | 0.00 | 1013.4 | |
| 20260504010539 | -17 | 212 | 0.0 | 0.0 | 0.00 | 0.00 | 0.00 | 1013.3 | |
| 20260504010036 | -17 | 214 | 0.0 | 0.0 | 0.00 | 0.00 | 0.00 | 1013.1 | |
| 20260504005532 | -17 | 217 | 0.0 | 0.0 | 0.00 | 0.00 | 0.00 | 1013.1 | |
| 20260504005030 | -17 | 217 | 0.0 | 0.0 | 0.00 | 0.00 | 0.00 | 1013.2 | |
| 20260504004528 | -17 | 218 | 0.0 | 0.0 | 0.00 | 0.00 | 0.00 | 1013.0 | |
| 20260504004024 | -17 | 212 | 0.0 | 0.0 | 0.00 | 0.00 | 0.00 | 1013.1 | |
| 20260504003520 | -17 | 206 | 1.6 | 1.6 | 0.00 | 0.00 | 0.00 | 1013.0 | |
| 20260504003017 | -17 | 211 | 1.6 | 1.6 | 0.00 | 0.00 | 0.00 | 1012.8 | |
| 20260504002514 | -17 | 204 | 1.6 | 1.6 | 0.00 | 0.00 | 0.00 | 1012.7 | |
| 20260504002012 | -17 | 230 | 0.0 | 0.0 | 0.00 | 0.00 | 0.00 | 1012.7 | |
| 20260504001509 | -17 | 222 | 0.0 | 1.6 | 0.00 | 0.00 | 0.00 | 1012.7 | |
| 20260504001005 | -17 | 224 | 0.0 | 0.0 | 0.00 | 0.00 | 0.00 | 1012.6 | |
| 20260504000503 | -17 | 228 | 0.0 | 0.0 | 0.00 | 0.00 | 0.00 | 1012.5 | |
| 20260504000000 | -17 | 220 | 0.0 | 0.0 | 0.00 | 0.00 | 0.00 | 1012.4 | |
| 20260503235458 | -17 | 225 | 0.0 | 0.0 | 0.00 | 0.00 | 0.00 | 1012.4 | |
| 20260503234954 | -17 | 214 | 0.0 | 0.0 | 0.00 | 0.00 | 0.00 | 1012.6 | |
| 20260503234452 | -17 | 215 | 0.0 | 0.0 | 0.00 | 0.00 | 0.00 | 1012.3 | |
| 20260503233950 | -17 | 208 | 0.0 | 0.0 | 0.00 | 0.00 | 0.00 | 1012.6 | |
| 20260503233446 | -17 | 217 | 0.0 | 0.0 | 0.00 | 0.00 | 0.00 | 1012.3 | |
| 20260503232943 | -17 | 220 | 0.0 | 0.0 | 0.00 | 0.00 | 0.00 | 1012.3 | |
| 20260503232440 | -17 | 214 | 0.0 | 0.0 | 0.00 | 0.00 | 0.00 | 1012.3 |